Regional Weather Roundup
Issued by NWS

Home | Current Version | Previous Version | Text Only | Print | Product List | Glossary On
Versions: 1 2 3 4 5 6 7 8 9 10 11 12 13 14 15 16 17 18 19 20 21 22 23 24 25 26 27 28 29 30 31 32 33 34 35 36 37 38 39 40 41 42 43 44 45 46 47 48 49 50
000
ASUS43 KBIS 281220
RWRND

NORTH DAKOTA REGIONAL WEATHER ROUNDUP
NATIONAL WEATHER SERVICE BISMARCK ND
700 AM CDT SAT MAR 28 2015

NOTE: "FAIR" INDICATES FEW OR NO CLOUDS BELOW 12,000 FEET WITH NO
SIGNIFICANT WEATHER AND/OR OBSTRUCTIONS TO VISIBILITY.


NDZ001>003-009>011-017-281300-
NORTHWEST NORTH DAKOTA

CITY           SKY/WX    TMP DP  RH WIND       PRES   REMARKS
WILLISTON      CLEAR     37  33  85 S7        29.81F
6HR MIN TEMP:  29; 6HR MAX TEMP:  39;

MINOT          CLOUDY    26  24  92 SE10      29.90F FOG     WCI  16
MINOT AFB      FRZ DRZL  27  27 100 SE12      29.89F VSB 3/4 WCI  17
$$

NDZ018>021-031>035-040>046-281300-
SOUTHWEST NORTH DAKOTA

CITY           SKY/WX    TMP DP  RH WIND       PRES   REMARKS
BISMARCK       FOG       29  28  96 SE10      29.97F VSB 1/2 WCI  20
6HR MIN TEMP:  27; 6HR MAX TEMP:  31;

DICKINSON      CLEAR     36  31  82 S12       29.84F
GARRISON         N/A     28  27  96 SE9       29.90F WCI  19
6HR MIN TEMP:  25; 6HR MAX TEMP:  34;

HETTINGER ARPT CLEAR     34  29  82 SE6       29.90F
$$

NDZ004>008-012>016-024-026-027-054-281300-
NORTHEAST NORTH DAKOTA

CITY           SKY/WX    TMP DP  RH WIND       PRES   REMARKS
GRAND FORKS    MOCLDY    22  16  78 S10       30.09S WCI  11
GRND FRKS AFB  CLOUDY    27  21  80 S8        30.07F WCI  18
DEVILS LAKE    CLOUDY    28  27  93 S12       29.99S WCI  18
$$

NDZ022-023-025-028>030-036>039-047>053-281300-
SOUTHEAST NORTH DAKOTA

CITY           SKY/WX    TMP DP  RH WIND       PRES   REMARKS
FARGO          CLEAR     26  18  71 SE13      30.12R WCI  15
6HR MIN TEMP:  26; 6HR MAX TEMP:  32;

JAMESTOWN      CLOUDY    29  27  92 S12       30.03R WCI  19
$$




USA.gov is the U.S. government's official web portal to all federal, state and local government web resources and services.